This is the latest recevied weather packets stored in our database for station/object VE8SKI. If no packets are shown the sender has not sent any weather packets the latest 10 day(s).
| Time | Temp. | Humidity | Pressure | Rain* | Wind** | Luminosity | Snow |
|---|---|---|---|---|---|---|---|
| 1778002719 | 4.44° C | 53% | 1023.5 hPa | 0 mm | 3.13 m/s, 180° | - | - |
| 1778002419 | 4.44° C | 54% | 1023.5 hPa | 0 mm | 2.24 m/s, 250° | - | - |
| 1778002120 | 4.44° C | 53% | 1023.5 hPa | 0 mm | 2.68 m/s, 218° | - | - |
| 1778001817 | 3.89° C | 52% | 1023.8 hPa | 0 mm | 3.58 m/s, 207° | - | - |
| 1778001518 | 4.44° C | 54% | 1023.8 hPa | 0 mm | 1.34 m/s, 201° | - | - |
| 1778001218 | 3.89° C | 54% | 1023.9 hPa | 0 mm | 2.24 m/s, 295° | - | - |
| 1778000919 | 4.44° C | 54% | 1024 hPa | 0 mm | 0.89 m/s, 278° | - | - |
| 1778000619 | 3.89° C | 54% | 1024 hPa | 0 mm | 3.13 m/s, 228° | - | - |
| 1778000320 | 3.89° C | 53% | 1024.1 hPa | 0 mm | 2.24 m/s, 222° | - | - |
| 1778000018 | 3.89° C | 55% | 1024.2 hPa | 0 mm | 0.89 m/s, 94° | - | - |
| 1777999718 | 3.89° C | 55% | 1024.3 hPa | 0 mm | 3.13 m/s, 240° | - | - |
| 1777999419 | 3.89° C | 54% | 1024.4 hPa | 0 mm | 2.68 m/s, 239° | - | - |
| 1777999119 | 3.89° C | 54% | 1024.5 hPa | 0 mm | 1.79 m/s, 280° | - | - |
| 1777998819 | 3.89° C | 55% | 1024.5 hPa | 0 mm | 1.34 m/s, 179° | - | - |
| 1777998520 | 3.89° C | 55% | 1024.5 hPa | 0 mm | 1.34 m/s, 235° | - | - |
| 1777998218 | 3.33° C | 57% | 1024.6 hPa | 0 mm | 0 m/s | - | - |
| 1777997918 | 3.33° C | 56% | 1024.8 hPa | 0 mm | 1.79 m/s, 288° | - | - |
| 1777997618 | 2.78° C | 56% | 1024.8 hPa | 0 mm | 3.13 m/s, 73° | - | - |
| 1777997319 | 2.78° C | 55% | 1024.8 hPa | 0 mm | 2.68 m/s, 256° | - | - |
| 1777997019 | 2.78° C | 55% | 1024.9 hPa | 0 mm | 1.79 m/s, 290° | - | - |
| 1777996720 | 2.78° C | 53% | 1025 hPa | 0 mm | 3.58 m/s, 217° | - | - |
| 1777996417 | 2.78° C | 53% | 1025.1 hPa | 0 mm | 2.24 m/s, 240° | - | - |
| 1777996119 | 2.78° C | 53% | 1025.2 hPa | 0 mm | 1.34 m/s, 253° | - | - |
| 1777995818 | 1.67° C | 51% | 1025.3 hPa | 0 mm | 2.68 m/s, 266° | - | - |
| 1777995518 | 1.67° C | 50% | 1025.4 hPa | 0 mm | 3.58 m/s, 222° | - | - |
* Rain latest hour (hover to see other rain measurements)
** Current wind speed in m/s (hover to see current wind gust speed)